Showing default

COSMOS 158, 2801

Orbit data source: Space-Track

COSMOS 158, 2801 is a payload satellite owned by OKB-10 (CIS) in LEO that was launched on Mon, 15 May 1967 UTC via a KOSMOS 11K65M launch vehicle from the Plesetsk Missile And Space Complex (PKMTR). Payload-class satellites include a variety of spacecraft equipped with specific instruments for various scientific and technological missions. These include communications satellites like Starlink; space stations such as the ISS; scientific satellites like the Hubble; Earth observation satellites from companies like Planet Labs, Umbra, and HawkEye 360; GPS; miniature CubeSats for education and research; and military/defense satellites.

Loading next visibility...
Identifier
2801, 1967-045A
Orbit
LEO
Last TLE update
10 hours ago
Origin
Manufacturer
OKB-10
Mission
Defense Navigation
Bus & Motor
KAUR-1 11F617, Unknown motor
Mass
800 kg wet, 800 kg dry
Launch date (UTC)
1967-05-15 (58 years ago)
Launch vehicle
KOSMOS 11K65M
Launch site
Plesetsk Missile And Space Complex (PKMTR)
Object type
Payload
Rocket body
Debris
Shape & HBR
Cyl + 1 Rod, 17 m
Radar Cross Section
9.978 m², Large (>1 m²)

Expand to show TLE details & history

TLE from 10 hours ago
0 COSMOS 158
1 02801U 67045A   25183.82408590  .00000025  00000-0  17318-4 0  9999
2 02801  74.0412 347.2500 0058108 280.5408  78.9202 14.36890535 46249
Epoch: 2025-07-02T19:46Z
TLE epoch observation values (Epoch: 2025-07-02T19:46:41.021Z)
Latitude
-0.00007°
Longitude
129.47941°
Altitude
763.654 km
Speed
7.477 km/s
True Right ascension
23h 08m 59s
True Declination
0° 00' 00"
Sunlit
Object was in daylight at epoch
Visualization orbit readout
Latitude
-70.09173°
Longitude
0.50575°
Altitude
756.055 km
Speed
7.496 km/s
Apparent Right ascension
06h 52m 26s
Apparent Declination
-72° 45' 19"
Sunlit
Object is in full shadow
Visualization observer readout
Local Sidereal Time
17:05:27
Azimuth
193.34° SSW
Elevation
-54.673°
Doppler factor
1
Orbital elements
Apogee altitude
807.929 km
Perigee altitude
724.898 km
Semi-major axis
7,144.55 km
Eccentricity
0.00581
Inclination
74.0412°
RAAN
347.25°
Arg. of periapsis
280.5408°
True anomaly
Unknown
Mean anomaly
78.9202°
Eccentric anomaly
Unknown
Mean motion
3.59402 °/min
Orbital period
100.17 mins
BSTAR
0.000017318
Loading maneuver chart data...
Loading SW <> Apogee altitude chart data...
Loading historical data...
Loading historical data...
Loading historical data...
Loading historical data...
Loading historical data...
Loading historical data...
Loading historical data...
Other satellites on launch #45 in the year 1967 (1967-05-15 UTC)

COSMOS 158 Visibility forecast

Observer location: undefined°, undefined°

Span
Click to sort rows by Start time (UTC) header in descending order
Start Az.
Max El. time (UTC)
Max El. Az.
Max El.
End time (UTC)
End Az.
6 mins2025-07-03 10:56:57.896Z133.213° SE2025-07-03 10:59:57.896Z94.139° ESE18.299°2025-07-03 11:02:57.896Z56.875° ENE
8 mins2025-07-03 12:37:57.896Z224.841° SW2025-07-03 12:40:57.896Z274.477° WNW36.787°2025-07-03 12:45:57.896Z6.1° NNE
8 mins2025-07-03 21:24:57.896Z9.487° NNE2025-07-03 21:27:57.896Z56.687° ENE29.029°2025-07-03 21:32:57.896Z127.296° SE
7 mins2025-07-03 23:06:57.896Z309.894° NW2025-07-03 23:09:57.896Z265.597° W26.268°2025-07-03 23:13:57.896Z206.854° SW
|